www.pogodaiklimat.ru

Погода и климат >> Архив погоды >> Мексика >> Pachuca


ПОГОДА в Pachuca

  • Прогноз погоды в Pachuca
  • Монитор погоды в Pachuca
  • Климат города

АРХИВ ПОГОДЫ в Pachuca

Время (UTC), дата Ветер
(напр.,м/с)
 
Видим.   Явления Облачность Т
(С)
Тd
(С)
f
(%)
Тe
(С)
Тes
(С)
Комфортность P
(гПа)
Po
(гПа)
Тmin
(С)
Tmax
(С)
R
(мм)
R24
(мм)
S
(см)
18 12.09 С 1 6000 м мгла 3/0
[Ci]
+19.6 +2.7 33 +21 +43 комфорт 1017.7 770.7 +4.4 +20.6
21 12.09 СВ 2 6000 м мгла ясно +21.0 +7.2 41 +23 +36 комфорт 1012.6 769.3
00 13.09 СВ 3 6000 м мгла ясно +18.5 +10.4 59 +19 +19 1008.6 768.2 +4.4 +23.0
03 13.09 СВ 1 3000 м мгла ясно +14.0 +7.1 63 +14 +14 1008.2 769.8
06 13.09 СЗ 1 3000 м мгла ясно +10.6 +6.2 74 +10 +10 1010.6 770.5 +4.4 +23.0
09 13.09 ЮВ 1 3000 м мгла ясно +7.0 +4.1 82 +6 +6 1013.0 769.9
12 13.09 штиль 0 4000 м мгла ясно +5.6 +3.8 88 +5 +5 1016.6 770.3 +5.4 +23.0
15 13.09 ЮЗ 1 6000 м мгла 3/0
[Ac trans]
+12.6 +4.3 57 +13 +20 1019.1 771.1
18 13.09 ЮЗ 2 6000 м мгла 4/0
[Ac cast]
+23.0 +4.1 29 +23 +37 комфорт 1015.7 770.3 +5.4 +23.6
21 13.09 СВ 2 6000 м мгла 5/0
[Ac cast]
+23.0 +10.0 44 +25 +33 комфорт 1009.8 768.6
00 14.09 СВ 2 5000 м мгла 6/0
[Ac cast]
+20.0 +10.1 53 +22 +22 комфорт 1006.1 768.5 +5.4 +26.5
03 14.09 СВ 1 4000 м мгла 6/6 1500 м
[Sc]
+16.4 +8.1 58 +17 +17 1006.9 770.5
06 14.09 Ю 1 4000 м мгла 5/0
[As op]
+13.6 +8.5 71 +14 +14 1009.7 771.4 +5.4 +26.5
09 14.09 СВ 1 4000 м мгла 8/0
[Ac lent]
+11.4 +7.4 76 +11 +11 1011.6 770.7
12 14.09 Ю 1 4000 м мгла 6/0
[As op]
+10.8 +8.4 85 +10 +10 1013.4 770.3 +10.6 +26.5
15 14.09 ЮЗ 1 6000 м мгла 8/0
[Ac lent]
+16.8 +11.0 69 +18 +21 1015.3 771.1
18 14.09 ЮВ 1 6000 м мгла 3/1 2000 м
[Cu hum Ci sp]
+24.0 +4.7 29 +24 +43 комфорт 1012.6 770.5 +10.4 +25.0
21 14.09 С 2 6000 м мгла 4/0
[Ac trans]
+24.8 +7.1 32 +25 +35 комфорт 1007.5 769.0
00 15.09 С 3 6000 м мгла 4/0
[Ac trans]
+21.0 +9.5 48 +23 +23 комфорт 1005.3 769.1 +10.4 +26.0
03 15.09 С 1 3000 м мгла 3/0
[Ac lent]
+17.0 +6.6 50 +18 +18 1006.3 770.7
06 15.09 ЮЗ 1 3000 м мгла ясно +13.2 +9.4 78 +13 +13 1008.3 770.9 +10.4 +26.0
09 15.09 ЮВ 1 3000 м мгла 3/0
[Ac lent]
+10.4 +6.0 74 +10 +10 1010.5 770.2
12 15.09 Ю 1 4000 м мгла 4/0
[Ac lent]
+8.6 +5.8 83 +8 +8 1013.6 770.3 +8.4 +26.0
15 15.09 ЮЗ 1 6000 м мгла 4/0
[Ac trans]
+16.6 +6.4 51 +18 +24 1016.6 771.5
18 15.09 С 3 6000 м мгла 3/0
[Cc]
+23.5 +1.6 24 +23 +38 комфорт 1013.6 770.7 +8.4 +24.0
21 15.09 С 4 6000 м мгла 3/3 1050 м
[Cu hum]
+24.0 +7.6 35 +24 +30 комфорт 1008.6 769.2
00 16.09 С 2 6000 м мгла 3/3 1000 м
[Cu hum]
+22.0 +10.8 49 +24 +24 комфорт 1005.6 769.3 +8.4 +25.0
03 16.09 СВ 1 4000 м мгла 4/4 1500 м
[Sc]
+17.4 +6.1 47 +18 +18 1005.6 770.6
06 16.09 СЗ 1 4000 м мгла 5/0
[As op]
+17.0 +3.4 40 +18 +18 1006.7 770.5 +8.4 +25.0
09 16.09 СВ 1 4000 м мгла 5/0
[As op]
+14.6 +6.1 57 +15 +15 1008.3 770.0
12 16.09 З 1 4000 м мгла 6/6 1470 м
[Sc As op]
+12.4 +6.9 69 +13 +13 1011.3 770.3 +12.4 +25.0
15 16.09 Ю 1 6000 м мгла 6/0
[Ac trans]
+17.2 +10.1 63 +18 +23 1014.0 771.8
18 16.09 З 1 6000 м мгла 4/0
[Ac lent]
+23.5 +11.0 45 +25 +40 комфорт 1011.8 771.1 +12.4 +24.8
21 16.09 С 2 6000 м мгла 6/6 1470 м
[Sc]
+23.0 +15.0 61 +27 +32 душно 1006.6 768.7
00 17.09 СВ 3 6000 м мгла 6/6 600 м
[Sc]
+19.4 +13.0 66 +21 +21 комфорт 1004.8 768.7 +12.4 +26.9
12 17.09 З 1 6000 м мгла 4/1 300 м
[Frnb Ac lent]
+15.2 +12.2 82 +16 +16 1011.9 771.5 +15.0 +26.9
15 17.09 Ю 1 6000 м мгла 6/3 840 м
[Cu Sc Ac lent]
+19.8 +13.1 65 +23 +26 комфорт 1013.8 772.7
18 17.09 ЮВ 2 6000 м мгла 6/6 1500 м
[Cu med, cong]
+25.0 +11.8 44 +27 +34 жарко 1011.5 772.1 +14.5 +25.8
21 17.09 СЗ 3 6000 м мгла 5/5 800 м
[Cu med, cong]
+21.0 +14.8 68 +25 +30 комфорт 1007.2 769.8 5
00 18.09 СВ 4 6000 м мгла 3/3 600 м
[Cu Sc]
+18.6 +11.7 64 +19 +19 1006.3 770.0 5
12 18.09 ЮЗ 1 4000 м дымка 6/3 200 м
[St Ci]
+12.2 +10.7 91 +12 +12 1013.7 771.4 +12.0 +26.2
15 18.09 СВ 1 6000 м мгла 6/3 840 м
[Frnb Ci]
+17.4 +10.7 65 +18 +24 1016.1 772.8
18 18.09 СВ 2 6000 м мгла 6/4 1500 м
[Cu Sc Cc]
+22.4 +10.7 47 +24 +35 комфорт 1013.5 772.0 +12.0 +23.6
21 18.09 СВ 4 6000 м мгла 5/5 1140 м
[Cu med, cong]
+22.5 +13.9 58 +26 +30 жарко 1009.2 770.6
00 19.09 СВ 3 6000 м мгла 4/4 1000 м
[Cu med, cong]
+20.0 +13.0 64 +22 +22 комфорт 1007.3 770.2 +12.0 +23.5
03 19.09 СВ 1 3000 м мгла 1/1 600 м
[Frnb]
+16.4 +11.6 73 +17 +17 1007.6 770.8
06 19.09 ЮЗ 1 3000 м мгла ясно +15.2 +11.6 79 +16 +16 1010.3 771.7 +12.0 +23.5
09 19.09 СВ 1 3000 м мгла ясно +13.6 +10.8 83 +14 +14 1011.1 770.9
12 19.09 штиль 0 4000 м мгла ясно +11.4 +10.1 92 +11 +11 1013.5 771.2 +11.2 +23.5

 

Местоположение метеостанции Pachuca (Мексика): широта 20.13 долгота -98.75 высота над уровнем моря 2435 м.

В архиве по умолчанию представлена погода в Pachuca за последнюю неделю. Архивные данные за месяц целиком и за предыдущие месяцы, начиная с января 2011 года, Вы можете получить, выбрав интересующий диапазон дат из раскрывающегося списка и нажав кнопку "Ввод!".

Внимание! Время в таблицах - всемирное. Для получения местного времени необходимо прибавить поправку, которая в Pachuca равна -6 ч.

Смотрите также архив погоды в соседних городах и на ближайших метеорологических станциях:

Погода в Tulancingo (Мексика) (40 км)
Погода в Mexico City (Мексика) (93 км)
Погода в Geografia Unam (Мексика) (101 км)
Погода в Tlaxcala (Мексика) (104 км)
Погода в Tlaxcala Airport (Мексика) (106 км)
Погода в Matlapa (Мексика) (133 км)
Погода в Puebla (Мексика) (135 км)
Погода в Toluca (Мексика) (136 км)
Погода в Cuernavaca (Мексика) (148 км)
Погода в Zacatepec (Мексика) (165 км)

Пояснения к столбцам:

Ветер - указаны скорость ветра в м/с - средняя за 10 мин, порывы в срок и между сроками (в фигурных скобках) и направление, откуда дует ветер: С - северный, СВ - северо-восточный, В - восточный, ЮВ - юго-восточный, Ю - южный, ЮЗ - юго-западный, З - западный, СЗ - северо-западный.
Видимость - горизонтальная дальность видимости в метрах или километрах. При видимости от 1 до 10 км при отсутствии осадков обычно наблюдается дымка, при ухудшении видимости до 1 км и менее - туман. В сухую погоду видимость может ухудшаться дымом, пылью или мглою.
Явления - указаны атмосферные явления, наблюдавшиеся в срок или в последний час перед сроком; фигурными скобками обозначены явления, наблюдавшиеся между сроками (за 1-3 часа до срока); квадратными скобками обозначены град или гололедные отложения с указанием их диаметра в мм.
Облачность - указаны через наклонную черту общая и нижняя облачность в баллах и высота нижней границы облаков в метрах; квадратными скобками обозначены формы облаков: Ci - перистые, Cs - перисто-слоистые, Cc - перисто-кучевые, Ac - высококучевые, As - высокослоистые, Sc - слоисто-кучевые, Ns - слоисто-дождевые, Cu - кучевые, Cb - кучево-дождевые. Подробнее классификацию облаков см. в Атласе облаков (PDF).
T - Температура воздуха - температура, измеренная на высоте 2 м над землей.
Td - Температура точки росы - температура, при понижении до которой содержащийся в воздухе водяной пар достигнет насыщения.
f - Относительная влажность воздуха - влажноcть воздуха, измеренная на высоте 2 м над землей.
Te - Эффективная температура - температура, которую ощущает одетый по сезону человек в тени. Характеристика душности погоды. При расчете учитывается влияние влажности воздуха и скорости ветра на теплоощущения человека.
Tes - Эффективная температура на солнце - температура, которую ощущает человек, с поправкой на солнечный нагрев. Характеристика знойности погоды. Зависит от высоты солнца над горизонтом, облачности и скорости ветра. Ночью, в пасмурную погоду, а также при ветре 12 м/с и более поправка равна нулю.
P - Атмосферное давление - приведенное к уровню моря атмосферное давление.
Po - Атмосферное давление - измеренное на уровне метеостанции атмосферное давление.
Tmin - Минимальная температура - минимум температуры воздуха на высоте 2 м над землей.
Tmax - Максимальная температура - максимум температуры воздуха на высоте 2 м над землей.
R - Количество осадков - Количество выпавших осадков за период времени, мм. При наведении курсора мыши на число - период времени, за который выпало указанное количество осадков.
R24 - Количество осадков - Количество выпавших осадков за 24 часа, мм.
S - Снежный покров - Высота снежного покрова, см. При наведении курсора мыши на число - состояние снежного покрова и степень покрытия местности в баллах.